Oxford, CT

12:57 PM EDT on April 30, 2017 (GMT -0400)
Waterbury-Oxford

Weather History for KOXC - October, 2012

Change the Weather History Date:

Thursday, October 4, 2012

  Actual Average Record
Temperature  
Mean Temperature 64 °F -  
Max Temperature 68 °F 60 °F 82 °F (2007)
Min Temperature 60 °F 42 °F 30 °F (1996)
Degree Days  
Heating Degree Days 1    
Growing Degree Days 14 (Base 50)    
Moisture  
Dew Point 63 °F    
Average Humidity 93    
Maximum Humidity 94    
Minimum Humidity 88    
Precipitation  
Precipitation 0.00 in - - ()
Sea Level Pressure  
Sea Level Pressure 30.13 in    
Wind  
Wind Speed 1 mph (NE)    
Max Wind Speed 5 mph    
Max Gust Speed -    
Visibility 2 miles    
Events Fog , Rain    
Averages and records for this station are not official NWS values.
T = Trace of Precipitation, MM = Missing Value Source: NWS Daily Summary

Daily Weather History Graph

Daily Weather History Graph

Search for Another Location

Airport or City:

Trip Planner

Search our weather history database for the weather conditions in past years. The results will help you decide how hot, cold, wet, or windy it might be!

Date:

Astronomy

Oct. 04, 2012 Rise Set
Actual Time 6:53 AM EDT 6:28 PM EDT
Civil Twilight 6:25 AM EDT 6:56 PM EDT
Nautical Twilight 5:53 AM EDT 7:28 PM EDT
Astronomical Twilight 5:20 AM EDT 8:00 PM EDT
Moon 8:58 PM EDT (10/4) 11:10 AM EDT (10/4)
Length of Visible Light 12h 30m
Length of Day
11h 35m
Waning Gibbous, 82% of the Moon is Illuminated
Oct 4
Waning Gibbous
Oct 8
Last Quarter
Oct 15
New
Oct 21
First Quarter
Oct 29
Full

Hourly Weather History & Observations

Time (EDT) Temp. Dew Point Humidity Pressure Visibility Wind Dir Wind Speed Gust Speed Precip Events Conditions
12:15 AM 66.2 °F 62.6 °F 88% 30.15 in 0.2 mi Calm Calm - N/A   Overcast
12:35 AM 64.4 °F 62.6 °F 94% 30.15 in 0.2 mi Calm Calm - N/A   Overcast
12:55 AM 64.4 °F 62.6 °F 94% 30.15 in 0.2 mi Calm Calm - N/A   Overcast
1:15 AM 64.4 °F 62.6 °F 94% 30.15 in 0.2 mi Calm Calm - N/A   Overcast
1:35 AM 64.4 °F 62.6 °F 94% 30.15 in 0.2 mi Calm Calm - N/A   Overcast
1:55 AM 64.4 °F 62.6 °F 94% 30.16 in 0.5 mi NNE 3.5 mph - N/A   Overcast
2:15 AM 64.4 °F 62.6 °F 94% 30.16 in 0.5 mi Calm Calm - N/A   Overcast
2:35 AM 64.4 °F 62.6 °F 94% 30.16 in 0.8 mi Calm Calm - N/A   Overcast
2:55 AM 64.4 °F 62.6 °F 94% 30.15 in 1.0 mi Calm Calm - N/A   Overcast
3:35 AM 64.4 °F 62.6 °F 94% 30.15 in 0.8 mi NE 3.5 mph - N/A   Overcast
3:55 AM 64.4 °F 62.6 °F 94% 30.15 in 0.5 mi Calm Calm - N/A   Overcast
4:15 AM 64.4 °F 62.6 °F 94% 30.15 in 0.8 mi Calm Calm - N/A   Overcast
4:35 AM 64.4 °F 62.6 °F 94% 30.15 in 0.8 mi Calm Calm - N/A   Overcast
4:55 AM 64.4 °F 62.6 °F 94% 30.15 in 0.8 mi Calm Calm - N/A   Overcast
5:15 AM 64.4 °F 62.6 °F 94% 30.15 in 0.8 mi Calm Calm - N/A   Overcast
5:35 AM 64.4 °F 62.6 °F 94% 30.16 in 1.0 mi Calm Calm - N/A   Overcast
5:45 AM 64.4 °F 62.6 °F 94% 30.15 in 0.2 mi ENE 3.5 mph - N/A Fog Fog
6:45 AM 64.4 °F 62.6 °F 94% 30.15 in 0.2 mi East 3.5 mph - N/A Fog Fog
7:45 AM 64.4 °F 62.6 °F 94% 30.17 in 0.1 mi Calm Calm - N/A Fog Fog
8:45 AM 64.4 °F 62.6 °F 94% 30.17 in 0.2 mi Calm Calm - N/A Fog Fog
9:45 AM 64.4 °F 62.6 °F 94% 30.17 in 0.2 mi ESE 3.5 mph - N/A Fog Fog
10:28 AM 64.4 °F 62.6 °F 94% 30.17 in 0.5 mi Calm Calm - N/A Fog Fog
11:45 AM 66.2 °F 64.4 °F 94% 30.16 in 1.0 mi Calm Calm - N/A   Overcast
12:45 PM 66.2 °F 64.4 °F 94% 30.15 in 1.0 mi Calm Calm - N/A   Overcast
1:50 PM 66.2 °F 64.4 °F 94% 30.12 in 3.0 mi Calm Calm - N/A   Overcast
2:45 PM 68.0 °F 64.4 °F 88% 30.10 in 4.0 mi Calm Calm - N/A   Overcast
3:45 PM 68.0 °F 64.4 °F 88% 30.10 in 5.0 mi Calm Calm - N/A   Overcast
4:45 PM 68.0 °F 64.4 °F 88% 30.09 in 4.0 mi Calm Calm - N/A   Overcast
5:45 PM 66.2 °F 64.4 °F 94% 30.08 in 2.0 mi Calm Calm - N/A   Overcast
6:45 PM 66.2 °F 64.4 °F 94% 30.07 in 1.0 mi Calm Calm - N/A Rain Rain
7:45 PM 66.2 °F 64.4 °F 94% 30.08 in 0.8 mi Calm Calm - N/A   Overcast
8:45 PM 64.4 °F 62.6 °F 94% 30.08 in 7.0 mi Calm Calm - N/A   Overcast
9:15 PM 64.4 °F 62.6 °F 94% 30.08 in 10.0 mi Calm Calm - N/A   Overcast
9:35 PM 64.4 °F 62.6 °F 94% 30.09 in 7.0 mi Calm Calm - N/A   Overcast
9:55 PM 64.4 °F 60.8 °F 88% 30.08 in 2.0 mi Calm Calm - N/A   Overcast
10:15 PM 62.6 °F 60.8 °F 94% 30.09 in 2.5 mi Calm Calm - N/A   Mostly Cloudy
10:35 PM 62.6 °F 60.8 °F 94% 30.09 in 1.0 mi Calm Calm - N/A   Overcast
10:55 PM 60.8 °F 57.2 °F 88% 30.10 in 0.5 mi Calm Calm - N/A   Overcast
11:15 PM 60.8 °F 59.0 °F 94% 30.10 in 0.2 mi Calm Calm - N/A   Overcast
11:35 PM 62.6 °F 60.8 °F 94% 30.10 in 2.5 mi NNW 3.5 mph - N/A   Overcast
11:55 PM 62.6 °F 60.8 °F 94% 30.09 in 0.5 mi North 4.6 mph - N/A   Overcast